Wind_Speed
25 25 31 36 36 33 33 33 31 28 24 22 21 22 22 22 22 21 20 20 20 21 24 25 24 23 20 19 19 19 20 19 17 16 16 21 25 21 17 16 17 18 15 15 16 16 19 22 23 22 21 21 23 25 25 26 26 27 26 25 25 25 24 24 24 24 22 21 20 19 18 16 15 15 15 14 12 12 12 11 9 9 9 8 7 8
26 30 37 38 33 29 29 30 29 28 27 27 25 23 24 23 22 21 21 21 22 22 23 24 24 24 23 21 21 23 24 22 20 19 16 19 21 19 19 17 16 18 19 17 17 17 18 21 22 22 23 23 24 25 25 26 26 27 27 26 26 26 26 25 24 23 21 20 19 18 17 16 15 15 14 14 13 12 12 11 11 10 9 9 8 9
30 38 39 32 30 28 26 28 30 29 28 29 28 25 24 23 22 21 22 22 22 22 22 22 24 26 27 25 23 25 26 25 24 22 19 20 20 19 21 20 16 18 21 20 19 20 20 20 21 22 23 24 24 25 25 25 26 28 28 28 28 28 27 26 24 23 21 20 19 18 17 16 16 15 14 14 14 14 14 12 12 12 11 10 9 10
33 38 35 29 28 29 29 28 29 31 29 29 30 28 25 22 21 22 24 23 23 24 21 20 23 25 27 27 26 25 25 28 29 25 22 23 23 22 22 19 14 16 22 21 21 23 22 22 22 22 23 25 26 26 26 25 26 28 28 28 29 28 27 26 25 23 22 21 20 19 18 18 17 17 16 16 16 16 16 14 13 12 12 11 11 11
33 29 25 28 29 29 31 30 29 31 31 30 31 30 27 23 21 21 21 22 24 25 22 21 22 23 24 25 26 25 23 27 30 27 25 25 26 25 22 17 13 14 18 21 21 24 24 22 20 21 23 25 26 25 25 25 25 27 28 27 28 28 26 26 25 24 24 23 23 22 21 21 20 19 19 19 18 17 16 15 14 13 13 12 12 12
34 24 20 27 31 31 32 32 32 31 30 31 32 32 30 24 22 22 19 19 24 26 26 24 18 18 24 26 26 26 23 25 26 26 27 26 27 27 23 21 17 14 15 19 20 22 23 22 20 21 24 25 25 23 22 23 24 25 27 26 27 27 26 26 25 25 25 24 23 23 22 22 20 20 18 17 17 16 15 15 14 14 13 11 11 12
33 26 23 25 29 32 32 33 33 31 29 29 30 31 31 27 24 23 22 21 23 23 25 27 22 17 22 26 27 27 26 27 28 26 27 28 30 30 25 23 21 17 15 18 22 22 23 24 21 19 22 25 23 20 20 22 24 25 26 26 27 27 26 26 26 26 26 25 24 23 22 21 19 19 17 16 15 15 15 15 15 15 13 11 11 12
32 29 28 27 27 31 34 34 32 32 31 27 24 25 29 31 27 24 24 24 24 23 23 27 28 23 22 24 26 28 29 28 28 29 29 32 32 31 28 26 24 21 17 16 21 23 23 23 19 14 17 23 23 20 18 21 23 25 26 26 27 27 27 26 26 26 26 25 24 23 22 21 20 19 18 16 15 15 15 15 14 14 14 12 12 12
29 32 32 29 29 30 33 34 30 30 32 27 21 20 24 29 29 26 25 24 23 23 23 26 28 22 20 25 25 28 32 31 29 30 29 32 33 31 29 27 24 24 20 14 17 21 20 19 17 12 13 22 26 22 17 16 20 23 25 25 26 27 28 27 26 26 26 25 24 23 21 21 21 20 18 18 17 15 15 15 14 14 14 13 13 12
25 30 31 30 31 30 29 30 29 29 30 26 21 19 19 23 28 29 27 25 23 20 22 27 27 19 16 22 25 26 32 34 33 33 31 31 32 30 28 27 25 24 21 15 14 18 18 16 14 15 17 22 27 24 18 15 18 21 24 25 25 27 28 27 26 26 26 26 24 23 22 21 21 20 19 18 17 16 15 15 15 14 14 14 14 13
25 24 28 32 32 28 26 26 28 29 28 24 22 22 18 17 22 25 28 29 21 18 24 28 27 20 13 17 24 25 28 30 29 30 31 32 32 28 27 28 27 26 23 19 17 18 20 17 16 18 18 19 25 28 24 19 18 19 22 24 25 26 27 28 27 27 27 26 25 24 22 22 22 21 20 18 17 17 16 14 13 12 12 13 14 14
29 26 27 32 31 27 25 25 27 28 27 24 23 23 19 18 20 19 23 26 17 14 25 30 27 22 18 20 24 21 22 26 26 25 26 32 33 29 28 28 28 29 27 21 17 18 20 21 21 22 18 17 23 28 26 21 18 18 20 23 24 26 27 28 28 27 27 27 26 25 23 23 23 22 21 19 18 17 15 13 12 10 10 10 11 12
34 34 28 27 30 31 27 27 27 27 29 27 25 25 20 16 16 13 12 16 15 14 21 27 27 26 26 28 27 23 20 24 29 27 23 28 31 30 31 31 29 31 28 22 17 17 21 24 25 25 22 19 22 25 24 20 17 17 19 21 23 25 26 27 28 28 27 28 27 26 24 24 24 24 22 20 19 18 17 14 12 11 10 9 9 9
31 34 33 29 31 35 33 30 29 30 31 31 29 29 23 13 9 10 9 10 13 17 20 23 24 25 28 30 30 29 24 20 25 29 28 30 31 32 34 34 34 33 30 25 19 16 21 27 28 27 25 22 22 23 22 20 18 18 19 21 22 23 25 26 27 28 28 28 28 26 25 25 26 25 23 21 20 20 18 16 14 12 10 9 8 7
25 26 37 38 31 33 37 33 29 28 30 32 31 28 26 20 12 9 10 10 11 13 19 23 20 21 26 27 28 31 30 25 22 25 29 32 34 37 36 34 34 35 31 27 23 19 21 27 30 30 27 24 24 25 22 19 19 19 20 21 22 23 24 25 26 27 28 28 28 27 26 26 27 26 24 23 22 21 20 17 16 14 12 10 9 8
28 26 34 38 30 30 37 36 29 27 28 30 30 29 31 29 21 13 12 16 16 12 14 21 23 24 25 24 23 25 30 32 28 25 25 27 32 36 33 31 32 35 31 26 24 21 19 23 28 29 28 25 25 26 24 20 19 19 19 21 22 23 24 25 25 26 27 27 28 28 27 27 27 27 26 25 23 22 21 19 17 15 13 12 11 10
28 28 27 32 33 31 33 36 34 28 25 27 31 34 32 27 24 17 13 16 18 12 11 18 22 26 25 22 21 22 23 28 31 31 27 25 29 34 32 33 32 35 32 26 23 22 18 18 22 24 27 27 26 27 23 20 19 17 17 17 20 23 24 25 26 25 26 27 28 28 27 27 27 27 27 26 24 23 22 21 19 17 16 14 13 12
23 24 25 32 37 34 31 34 36 31 25 26 32 33 27 23 23 21 13 10 12 9 10 18 21 22 22 19 20 24 23 23 27 31 31 27 28 33 36 36 34 34 33 28 24 22 20 18 17 20 25 27 27 27 23 20 20 18 17 16 18 21 22 23 25 25 26 27 27 28 28 27 27 26 26 26 26 25 24 23 21 19 18 16 15 14
22 22 25 31 36 34 31 32 34 36 31 27 27 29 27 22 22 23 16 9 9 7 7 14 17 18 20 19 20 24 26 25 24 27 32 30 26 31 36 37 35 33 33 31 26 23 23 21 17 17 22 26 27 27 25 23 22 20 18 17 17 18 19 20 22 24 26 27 28 28 27 27 27 26 26 27 27 27 26 24 22 20 19 18 17 17
26 20 21 29 35 34 33 35 37 38 38 30 23 26 30 25 21 24 21 13 10 7 6 9 10 13 18 19 19 21 23 25 23 24 30 31 26 28 31 34 35 31 31 33 30 27 25 23 21 18 17 21 24 24 26 26 24 22 20 18 17 17 18 20 22 24 26 27 28 28 27 27 27 27 27 27 28 28 27 25 23 22 20 20 19 18
33 25 21 24 33 37 37 40 41 38 39 37 30 28 30 27 23 22 22 21 15 7 5 6 8 13 19 20 19 19 20 23 22 21 27 31 29 29 29 30 32 30 31 35 33 29 25 23 23 21 17 17 19 19 22 25 24 23 22 21 19 18 18 19 20 22 23 25 26 28 28 28 28 28 27 28 29 29 28 26 25 24 22 22 21 20
37 30 25 23 29 40 41 39 39 36 37 39 35 30 29 29 26 18 15 22 21 13 8 6 5 4 7 13 18 18 16 19 20 19 23 29 30 30 31 30 30 28 29 36 37 30 25 24 24 22 20 19 18 17 18 21 24 25 24 23 22 21 21 19 19 19 20 22 24 26 27 28 28 28 27 28 29 29 28 27 26 25 24 23 22 21
33 26 25 25 26 34 37 33 33 33 33 36 36 32 27 28 30 21 12 16 21 18 15 12 8 2 7 9 14 13 12 15 18 18 20 26 28 29 31 30 30 28 28 34 37 31 25 25 24 23 22 22 19 17 16 18 22 24 25 25 24 24 23 21 20 19 18 20 23 25 26 27 28 28 28 28 29 28 28 27 27 26 26 25 23 22
29 26 24 24 24 27 33 31 30 31 32 35 37 36 31 28 30 25 17 16 18 20 17 12 7 4 8 11 15 12 9 11 14 17 19 22 25 25 26 30 31 30 27 31 34 31 26 25 25 23 23 23 20 17 16 17 19 22 25 25 25 25 24 23 22 20 20 21 22 24 26 27 28 29 29 29 29 28 27 27 27 27 27 26 25 24
19 24 25 20 17 18 27 27 27 33 35 35 36 38 35 31 28 26 23 19 16 18 19 13 7 8 12 13 14 11 10 10 10 15 18 19 22 23 22 26 32 32 28 29 33 32 28 26 26 24 22 21 19 17 16 16 19 21 24 25 26 26 26 25 24 22 22 22 23 24 25 27 28 29 30 30 29 28 26 26 27 27 27 27 27 26
9 15 21 19 13 13 18 20 26 33 35 34 34 37 38 35 30 28 25 21 15 15 20 18 10 13 16 13 12 11 11 11 11 14 16 16 18 22 24 27 31 33 29 29 32 32 30 28 27 26 24 20 18 18 17 15 18 21 22 25 27 28 28 28 27 25 24 23 24 25 25 27 28 29 29 29 28 27 26 26 27 27 27 27 27 28
11 15 18 20 20 16 11 13 21 28 32 34 33 35 39 38 33 29 26 23 18 15 19 20 14 15 17 13 12 14 12 11 13 16 17 18 18 21 26 29 30 31 29 28 30 30 29 28 28 28 26 19 16 18 19 17 18 20 22 24 27 29 30 30 30 29 27 26 25 25 26 27 27 28 27 27 27 27 26 27 27 27 27 26 27 28
13 16 19 21 23 19 8 6 6 13 24 33 35 34 37 39 36 32 28 24 20 15 15 18 14 13 16 15 12 14 15 12 14 18 17 19 20 18 20 26 31 33 34 32 32 30 26 25 28 30 28 21 18 20 21 19 19 20 22 24 26 28 30 30 32 32 30 28 27 26 26 26 27 27 26 26 26 27 27 27 27 27 26 26 26 27
10 14 18 21 23 21 16 11 7 5 9 20 32 35 33 37 39 35 30 24 22 18 14 16 13 8 11 13 11 13 17 15 16 21 18 14 14 14 16 22 27 29 30 30 31 30 27 26 29 31 28 23 21 22 23 22 21 21 22 24 25 27 29 30 32 33 33 31 29 28 27 26 26 26 27 27 27 27 27 27 27 27 26 26 26 26
8 12 15 18 23 23 20 20 14 10 9 10 23 34 33 34 38 36 32 26 23 20 16 16 17 10 6 10 15 17 19 18 17 21 17 11 11 13 14 16 18 19 19 20 22 26 28 29 30 28 26 24 23 24 24 23 23 22 22 22 22 24 26 29 30 32 33 33 31 30 29 27 26 27 28 28 28 28 28 27 27 27 27 27 26 25
6 8 10 12 19 21 21 22 18 14 14 12 14 26 32 32 34 36 34 30 25 23 19 16 19 17 8 11 20 21 20 19 18 19 18 11 10 14 14 13 13 15 15 14 17 21 23 25 25 24 23 24 24 23 23 23 23 22 20 18 17 18 21 25 27 28 31 33 33 32 32 31 29 28 28 29 28 28 27 27 27 26 26 26 25 24
9 9 9 10 15 17 18 20 19 15 14 14 13 16 25 29 31 33 34 33 28 25 23 18 19 21 15 14 21 22 19 17 16 19 18 10 9 14 15 11 11 13 14 13 15 19 19 18 20 21 21 22 22 22 22 22 22 21 19 17 14 14 15 18 21 23 26 31 33 33 34 34 32 30 30 30 29 28 27 27 27 26 26 25 24 24
14 15 10 8 13 16 15 14 16 14 11 14 15 14 20 24 28 30 31 32 29 26 25 21 18 21 21 17 18 20 17 12 12 15 13 7 9 13 13 10 11 13 13 10 10 14 15 14 15 16 19 20 21 23 23 22 22 21 19 18 16 14 13 13 16 19 22 25 29 32 34 35 34 33 31 31 31 30 29 28 28 27 27 26 25 25
16 16 11 10 12 15 14 11 13 12 9 13 17 18 16 15 20 27 30 31 31 27 25 23 19 19 22 22 18 15 14 12 11 13 10 7 9 10 10 11 10 10 12 11 10 11 12 13 13 15 19 20 21 23 24 23 22 21 19 19 18 17 15 13 14 16 18 20 23 27 31 34 36 35 33 33 33 33 32 31 29 29 28 28 27 26
16 15 14 13 11 11 14 13 12 12 12 12 15 20 17 11 11 13 16 26 34 32 25 23 21 18 18 21 18 13 12 10 9 11 10 7 6 6 8 10 10 10 12 13 14 15 15 16 16 17 20 20 19 21 23 24 23 22 21 20 20 19 18 16 15 15 17 19 20 22 26 30 34 36 35 35 35 35 34 33 31 30 29 29 28 27
14 14 15 15 10 7 9 12 13 13 15 15 15 18 17 13 11 9 7 13 25 27 21 18 17 15 15 16 15 13 11 10 8 11 12 10 8 6 6 8 11 12 11 12 14 17 20 21 18 18 21 20 18 20 22 24 25 24 23 22 21 21 21 20 18 17 18 20 20 20 22 26 30 33 36 37 37 36 35 33 32 31 30 30 29 29
13 13 12 13 9 7 7 13 17 16 14 17 20 20 18 14 13 11 10 8 12 17 18 15 14 15 13 13 13 12 11 10 7 6 6 7 7 7 9 12 13 13 13 16 19 21 22 22 19 18 21 21 19 20 22 24 25 25 25 24 23 22 23 23 21 19 19 21 21 20 21 23 25 28 34 38 38 36 35 34 33 32 31 32 32 32
12 13 11 10 9 8 10 13 15 14 12 15 19 18 18 17 12 9 11 11 10 14 16 14 13 13 13 13 14 14 14 12 9 6 5 5 8 12 17 17 16 15 17 21 23 22 21 22 21 21 22 23 22 22 23 24 25 25 26 25 24 23 24 24 24 22 20 21 22 22 22 22 23 25 30 36 37 37 36 35 34 33 33 33 33 34
15 14 13 12 12 10 11 11 10 13 13 14 18 17 16 16 12 8 9 11 12 14 16 16 14 12 13 14 14 14 16 15 11 11 14 14 14 17 19 16 16 18 21 22 22 21 21 23 24 25 25 25 25 25 25 26 26 26 26 26 25 25 25 25 25 24 23 21 23 25 24 23 23 24 28 32 35 37 37 36 36 35 35 35 36 36
20 15 13 14 14 12 12 13 11 11 7 5 11 16 16 16 15 12 7 7 11 14 14 14 12 13 17 19 14 15 18 15 8 9 15 16 16 19 19 17 17 18 19 21 20 19 20 22 24 25 26 26 27 27 27 28 28 28 28 27 27 27 27 26 27 26 25 23 23 25 26 25 24 25 27 30 33 35 37 38 38 37 37 37 37 38
21 18 16 17 17 13 12 13 12 9 3 2 9 12 12 17 20 16 10 9 11 13 14 13 13 15 20 21 17 16 19 18 15 14 14 17 19 20 19 20 21 19 18 20 20 17 18 20 21 23 25 27 28 28 29 29 29 30 30 29 28 26 26 28 29 28 27 26 24 24 25 26 27 27 28 29 31 34 36 38 38 39 38 38 39 39
20 20 18 18 19 16 13 12 12 9 3 4 10 13 13 13 13 12 14 17 13 9 12 15 16 19 20 21 23 24 26 28 27 23 19 18 19 19 19 20 22 21 19 21 22 21 19 19 19 22 25 27 28 28 28 28 28 29 31 31 29 26 24 26 29 28 28 28 26 23 23 25 28 29 29 29 30 33 36 37 38 39 40 40 41 41
20 21 21 20 20 19 17 14 12 6 5 6 10 17 14 9 8 12 19 20 10 7 11 11 12 16 20 24 27 30 30 30 31 30 27 25 25 25 23 22 22 21 21 22 23 22 20 19 20 21 24 26 27 27 26 26 26 27 30 32 32 28 24 25 28 29 29 29 27 24 23 25 28 30 31 31 32 33 36 38 39 40 40 41 42 42
17 19 19 21 21 21 21 19 15 9 4 9 4 13 11 6 7 14 19 14 6 11 14 8 5 11 19 24 25 26 28 29 30 31 29 28 28 29 30 29 27 26 25 25 24 21 20 21 21 21 23 25 26 26 26 26 27 28 30 31 33 32 27 25 28 30 29 29 27 24 23 24 27 30 33 33 34 35 37 39 40 41 41 42 43 44
12 11 12 17 20 22 22 18 16 14 5 3 3 12 15 8 5 6 15 11 6 11 14 9 6 7 11 16 18 20 23 26 28 28 26 26 26 28 32 32 30 29 28 28 26 22 21 22 21 21 23 25 26 27 27 27 28 29 30 30 31 31 29 26 27 29 29 29 28 25 24 25 26 30 33 35 36 37 39 41 42 42 43 43 43 44
11 11 13 13 14 20 24 21 18 15 8 4 7 16 20 11 5 3 13 15 10 10 12 11 9 6 4 7 12 16 20 22 23 24 23 25 26 28 30 29 28 27 27 27 26 22 21 23 23 21 21 23 26 27 27 26 26 26 27 28 28 29 28 25 25 26 28 28 27 26 25 26 27 29 33 37 39 40 42 43 43 43 43 44 44 44
9 12 16 15 12 15 20 22 20 15 9 9 11 17 21 16 6 9 18 19 14 11 11 9 8 5 2 4 7 13 15 16 17 17 16 18 21 23 26 27 26 25 24 24 24 23 22 23 24 23 21 21 24 26 26 25 24 23 23 25 26 27 27 25 23 22 23 25 26 26 26 27 29 31 33 37 41 43 44 44 43 43 44 44 45 45
6 9 14 16 14 14 17 19 20 17 14 17 20 22 22 21 20 23 24 22 18 15 13 12 11 10 8 8 10 12 12 12 13 12 10 11 13 15 19 21 21 20 20 22 23 22 22 23 24 24 23 21 22 24 24 24 22 21 21 23 25 25 25 24 23 21 19 20 23 24 26 27 29 31 34 38 41 43 44 43 43 44 45 45 45 45
10 11 13 14 14 16 19 21 21 21 21 25 29 30 28 25 28 32 30 25 23 22 20 18 17 16 15 15 16 16 16 15 13 12 11 11 11 12 14 15 16 16 17 18 20 21 21 22 23 25 24 23 23 24 25 24 22 21 21 22 23 24 24 23 23 22 20 19 19 21 23 25 27 30 33 35 38 40 41 41 41 42 42 41 39 38
14 15 15 15 16 17 17 18 19 19 20 20 22 25 28 29 33 37 36 32 29 27 26 25 25 23 23 22 20 20 21 20 17 15 14 14 14 13 13 14 15 15 15 16 17 18 18 20 22 24 24 24 24 25 26 25 23 22 22 22 21 22 23 23 23 23 22 20 19 19 21 23 25 27 29 31 32 34 36 36 35 34 32 31 30 29
16 18 17 17 19 19 16 15 16 17 18 16 15 18 24 30 36 42 45 42 38 35 32 31 30 29 28 28 26 24 25 24 21 19 17 16 15 15 15 16 17 17 17 17 17 17 17 18 20 22 24 24 25 26 26 26 24 22 21 21 21 22 22 22 23 23 22 21 19 19 19 20 22 24 25 26 26 27 27 26 26 25 25 26 26 26
Wind_Direction
202 209 215 215 215 214 215 216 219 222 224 229 228 224 224 225 230 233 228 216 209 215 218 219 221 220 221 210 202 203 202 206 205 208 215 202 204 217 216 217 220 213 210 207 202 195 198 208 215 219 217 215 218 217 212 211 210 210 211 209 208 206 204 203 202 203 202 201 201 197 196 198 199 202 206 209 212 217 222 225 223 220 219 217 216 214
206 216 220 217 216 215 218 219 221 224 226 233 237 233 229 226 227 231 230 218 206 214 218 214 220 224 223 219 215 211 206 209 207 202 208 204 207 220 220 225 231 217 212 210 205 200 197 205 212 217 219 218 219 221 216 213 213 213 212 211 210 209 207 206 204 203 202 201 202 201 199 200 205 208 211 215 219 224 226 226 226 225 223 221 221 219
209 221 222 217 216 217 219 220 221 223 225 231 237 240 237 229 224 227 231 223 205 212 221 216 220 226 225 227 227 220 212 209 205 201 207 210 212 222 225 229 235 222 215 212 206 202 200 203 209 214 221 221 220 223 220 216 215 215 215 212 212 212 209 208 205 202 202 202 204 206 206 208 212 215 215 217 220 226 228 226 225 226 226 225 224 223
211 223 221 214 216 216 219 220 219 222 225 227 230 235 238 231 224 223 225 222 211 216 225 222 227 229 224 226 228 227 222 211 207 206 207 210 215 226 231 230 232 222 214 211 203 200 203 203 206 212 219 221 221 223 222 219 217 216 217 216 215 215 211 209 207 204 203 203 206 208 210 212 215 217 217 217 220 223 226 226 225 228 228 227 226 225
216 223 218 212 215 215 217 220 217 219 222 225 227 228 231 232 231 230 227 220 215 216 218 219 228 230 228 229 227 228 225 211 207 203 198 208 218 226 234 233 236 231 217 211 202 199 205 206 206 213 217 219 221 224 223 222 220 218 219 219 219 219 215 211 209 207 206 205 206 208 211 213 215 217 217 220 221 219 222 225 226 230 232 231 230 227
223 222 216 212 214 215 216 219 217 217 220 223 226 226 228 231 232 235 236 226 220 216 213 218 227 229 228 232 230 226 223 215 214 206 194 202 215 220 230 236 240 244 222 211 208 205 209 208 205 211 217 217 220 226 226 224 223 221 222 221 221 222 220 216 211 209 210 209 209 210 213 215 218 221 223 225 226 221 220 224 226 230 234 237 236 233
225 221 217 213 212 214 216 219 218 215 220 224 225 225 227 231 233 233 234 232 229 222 217 219 223 229 228 228 229 227 226 222 222 217 200 199 211 215 223 234 240 246 232 216 215 214 213 211 208 210 214 214 218 227 227 224 223 221 222 222 221 223 222 220 215 211 212 213 213 214 216 218 221 225 227 227 229 226 221 224 226 228 231 233 234 237
222 217 216 214 211 213 215 217 216 213 220 225 223 222 224 228 232 233 233 235 237 235 229 220 217 225 231 230 230 228 229 226 221 219 205 198 208 213 219 232 236 241 242 226 220 218 214 215 215 210 210 210 216 228 228 225 223 221 222 221 220 223 223 222 219 215 215 215 215 216 217 219 220 222 224 224 226 225 220 222 224 224 228 230 231 238
217 215 214 213 211 213 215 216 214 213 220 225 221 221 222 225 229 233 236 240 242 243 241 229 218 218 225 228 229 226 227 228 224 224 215 203 206 211 219 229 232 237 241 232 225 224 219 217 217 212 210 210 214 224 232 230 226 223 222 222 220 221 223 223 221 218 218 218 217 218 219 220 221 221 221 221 221 221 217 219 222 222 224 227 231 237
219 218 215 215 215 216 216 215 213 213 218 220 218 223 224 221 224 227 234 240 245 247 244 237 227 223 225 223 222 220 221 224 221 223 225 215 208 210 216 222 228 236 239 237 236 232 224 216 216 221 218 213 215 222 230 231 228 225 222 222 220 220 223 224 223 221 221 221 220 219 220 221 223 222 221 221 219 219 219 217 222 227 226 225 229 236
224 222 215 217 219 217 216 214 213 213 215 214 215 221 225 221 219 221 226 232 241 244 238 238 234 233 240 232 228 223 220 224 222 221 224 214 203 204 212 218 227 233 235 239 238 228 222 217 216 221 213 204 213 222 226 227 227 225 223 222 220 218 221 224 224 223 222 223 222 221 221 220 222 223 224 223 220 222 225 223 224 229 229 226 227 234
228 225 216 217 219 216 214 214 213 212 211 210 209 213 218 217 214 215 219 221 230 238 230 232 232 231 234 233 235 233 223 223 227 226 218 203 194 198 208 216 224 229 230 232 226 216 216 216 214 213 204 193 205 215 221 223 224 225 223 222 221 218 219 221 224 223 222 223 224 222 221 220 221 223 225 225 223 225 229 228 226 224 225 225 224 229
224 226 219 215 215 212 210 210 210 207 206 206 204 204 208 207 204 208 212 214 227 237 228 226 227 231 236 235 234 236 229 220 222 225 216 202 199 200 205 206 211 224 230 225 221 215 212 215 213 209 204 199 202 209 215 220 223 225 223 222 221 219 219 220 223 223 222 222 224 222 220 219 220 222 224 224 222 225 227 227 225 221 219 220 219 224
218 223 222 215 211 209 208 205 204 201 199 201 201 199 204 204 191 201 211 217 230 233 227 224 225 231 238 238 234 232 232 224 219 220 216 210 208 204 204 204 204 216 226 220 218 217 212 215 217 212 208 201 201 207 212 217 222 224 223 222 223 222 220 221 222 223 223 222 223 223 220 219 220 221 223 223 221 224 226 226 226 224 220 218 217 217
211 216 217 214 207 205 207 207 203 197 196 201 202 201 208 211 200 200 210 217 229 230 223 220 222 230 234 235 235 231 229 229 223 220 220 219 212 204 208 215 208 208 217 216 213 212 208 212 217 218 215 204 200 206 210 214 219 224 223 221 222 224 223 222 221 222 223 222 222 223 221 219 220 222 223 223 221 223 226 226 227 227 223 220 218 216
216 221 216 212 209 205 205 206 202 198 198 201 202 206 212 210 206 214 220 218 224 231 221 215 218 228 235 239 236 229 227 225 223 223 225 221 208 199 208 221 209 199 209 214 211 209 206 208 213 217 220 215 207 206 209 213 218 223 225 222 221 222 224 224 223 223 223 223 223 223 222 221 221 222 223 223 222 222 226 227 228 230 228 224 221 220
216 224 216 208 211 209 204 202 200 201 199 194 199 209 212 208 209 222 230 222 222 229 223 217 219 223 232 241 230 221 224 222 218 220 221 217 208 203 213 225 211 196 204 215 212 210 210 210 209 212 221 224 217 210 210 214 219 223 224 222 220 221 222 224 224 223 222 223 223 222 222 222 222 223 224 224 224 223 225 227 227 229 229 228 226 224
218 224 215 205 208 208 202 199 202 207 202 194 201 207 206 206 213 224 237 230 221 231 224 219 223 217 215 225 222 216 219 220 216 215 216 217 211 208 216 224 211 193 199 214 218 217 222 225 218 216 223 227 222 216 213 215 218 220 220 220 222 223 224 225 224 223 221 221 222 221 221 221 222 224 225 225 225 224 225 225 226 228 229 231 232 230
223 227 217 205 205 203 196 196 202 209 209 205 205 203 200 202 206 213 226 234 221 229 225 220 230 225 212 211 215 215 215 216 218 214 212 214 209 206 213 216 208 196 198 209 217 220 226 234 230 223 225 226 224 220 218 218 217 216 217 217 220 224 227 228 227 225 222 220 220 220 220 221 222 224 225 225 226 225 226 226 226 228 230 232 234 235
224 233 223 204 200 197 192 195 202 205 207 212 213 203 202 207 206 206 214 227 229 227 222 219 229 236 227 214 206 210 209 209 216 215 210 209 203 201 208 208 204 202 200 204 211 214 219 226 225 222 222 224 225 223 222 222 219 217 217 213 214 219 222 225 227 226 225 221 219 218 218 219 221 224 225 225 226 227 227 227 228 229 231 232 234 236
226 235 231 206 196 195 196 199 202 201 200 206 211 205 200 204 208 209 213 219 225 236 231 220 225 232 231 218 204 208 209 204 210 213 208 206 201 199 205 209 210 208 200 198 205 210 212 215 213 211 215 219 222 224 223 224 223 220 219 214 210 212 215 220 222 223 225 222 220 218 217 217 219 222 224 225 226 227 227 227 229 230 232 233 235 237
222 226 228 220 203 200 203 203 203 203 201 201 206 207 200 198 202 207 211 211 216 232 237 237 253 238 210 203 199 200 200 196 201 206 204 204 203 199 201 210 218 215 201 196 202 208 207 205 203 202 209 217 222 227 224 222 222 221 220 216 211 210 212 215 216 217 219 218 218 217 216 216 217 219 223 224 225 226 226 227 229 231 233 235 236 238
217 222 223 229 224 209 204 204 203 204 206 205 206 208 204 199 203 207 208 202 207 221 229 239 254 78 95 157 175 173 179 187 194 199 199 200 203 203 201 206 215 216 204 195 199 206 206 201 203 207 212 217 224 232 228 222 221 220 220 219 215 212 212 213 214 215 214 214 214 215 214 214 215 217 219 222 223 224 225 227 229 232 235 236 238 240
216 227 225 235 249 225 201 201 206 205 208 210 208 208 208 204 204 207 211 204 205 212 213 226 236 132 112 147 158 158 169 175 184 193 195 196 198 201 200 204 209 210 205 195 195 206 209 203 205 211 215 218 222 228 226 222 222 220 219 219 216 215 215 214 215 214 212 213 213 213 214 213 214 215 217 220 222 222 224 227 230 232 235 237 239 241
214 228 225 231 255 227 195 194 203 203 208 213 209 206 209 209 204 204 210 210 211 210 204 214 222 154 132 140 151 161 172 170 177 187 190 192 194 196 197 201 203 204 205 197 193 203 210 206 206 211 210 209 211 219 222 218 219 219 218 218 216 216 217 217 218 217 214 213 213 213 214 214 214 215 216 219 221 222 223 227 230 232 234 236 239 242
227 239 230 227 232 212 193 198 203 199 203 212 211 205 206 210 206 202 206 209 210 205 201 213 211 155 144 148 154 158 169 178 181 182 182 183 188 197 200 200 200 201 205 197 190 199 208 207 209 210 205 200 203 215 222 218 215 217 217 218 219 218 218 217 219 220 219 217 216 215 214 215 216 216 217 218 221 222 224 227 231 233 234 235 238 242
277 262 235 229 232 223 192 189 202 203 203 208 212 206 202 208 210 203 204 208 204 197 201 210 198 155 152 161 161 163 170 178 180 179 179 181 185 188 191 196 195 190 191 189 188 200 211 213 215 212 206 203 204 212 220 220 215 215 217 220 221 221 219 219 220 222 223 221 220 220 218 216 217 218 219 220 221 222 224 227 231 233 235 236 237 241
287 265 235 231 240 237 205 160 193 211 208 207 211 208 201 203 208 206 205 204 197 195 197 196 186 161 158 157 149 160 167 165 172 171 166 176 186 174 168 182 184 178 179 183 186 193 201 207 216 217 214 214 213 210 216 221 217 216 219 223 225 225 223 221 221 223 225 223 222 223 223 220 219 219 220 221 222 224 226 228 231 234 237 239 240 242
288 268 245 240 245 242 231 238 264 262 225 212 211 209 203 201 205 207 208 201 194 199 196 185 181 160 153 164 164 163 165 159 157 162 154 150 167 163 152 164 172 174 181 188 191 193 193 196 208 216 219 218 214 210 213 219 218 217 221 225 228 229 228 226 224 224 227 226 223 223 225 224 222 220 220 221 222 223 226 229 232 235 239 243 245 246
299 257 239 242 250 248 241 243 250 255 267 253 219 209 204 202 203 206 209 205 198 198 198 193 192 182 150 171 171 158 158 158 152 161 160 128 132 157 152 152 169 185 191 193 196 198 198 200 206 213 215 212 209 209 211 216 219 219 221 226 231 233 233 233 231 228 228 229 226 225 226 226 224 222 221 221 221 222 225 228 231 234 238 242 246 247
324 259 248 261 262 256 246 241 241 242 252 272 242 212 205 204 203 203 207 208 204 199 199 196 189 185 163 145 153 148 143 144 142 151 156 134 128 151 149 148 175 202 206 197 190 185 186 193 195 195 198 199 199 202 205 210 215 219 220 223 230 236 237 239 241 237 234 233 231 228 228 227 225 223 223 222 222 222 222 225 228 230 233 236 241 245
346 318 297 283 270 256 246 239 232 227 239 263 267 228 210 206 203 201 204 207 204 197 197 197 187 185 178 148 150 155 147 136 135 145 152 140 128 145 151 151 164 186 199 201 193 182 175 178 182 182 186 191 193 195 199 204 210 214 216 217 223 233 237 241 246 247 244 240 237 233 230 229 226 224 223 223 224 224 223 223 225 228 232 234 237 243
340 335 318 296 275 252 246 246 229 216 233 254 250 225 209 208 206 202 202 205 207 200 197 196 186 184 188 180 165 162 162 156 147 153 162 163 149 155 165 167 160 166 176 185 198 199 195 191 192 194 193 192 194 197 198 201 205 207 211 214 220 230 238 241 245 249 250 248 245 240 235 232 229 225 223 223 225 226 226 225 225 228 232 236 239 244
328 331 318 313 292 252 243 252 233 219 230 237 221 204 203 214 215 207 200 200 204 202 200 198 188 179 186 194 187 171 173 181 172 170 179 179 168 172 183 185 178 170 169 175 187 197 207 207 204 211 210 200 198 202 202 203 205 206 209 214 220 229 239 246 247 249 249 248 250 247 242 237 233 228 225 224 225 227 228 228 228 229 233 238 242 245
316 323 317 315 299 257 240 234 225 222 225 222 210 204 210 232 238 224 212 202 200 199 198 195 190 177 175 187 191 180 172 175 183 192 193 179 170 179 191 201 209 203 198 205 201 190 196 197 188 198 210 207 203 207 208 208 209 211 213 217 223 230 240 247 251 253 249 243 245 249 246 242 238 232 227 225 226 227 229 230 230 231 233 237 242 246
300 307 318 316 293 253 245 237 229 226 220 214 209 204 209 229 241 251 258 207 191 189 186 180 178 169 162 172 181 181 175 166 169 182 182 181 181 175 187 215 225 226 228 233 224 210 208 207 201 201 209 211 213 216 214 213 214 217 219 221 225 232 240 246 251 255 251 241 239 243 246 246 244 237 230 228 227 227 228 231 232 232 234 237 241 246
287 287 307 314 277 241 271 257 231 219 213 213 215 209 206 221 230 231 241 220 175 173 176 176 181 182 178 180 181 183 184 178 178 194 207 223 226 217 220 219 215 223 235 235 233 230 223 223 227 225 218 218 223 225 221 218 218 219 221 222 225 232 239 245 249 254 253 245 238 237 241 244 245 241 234 231 230 229 229 232 233 234 235 236 239 243
267 268 276 297 283 256 274 267 231 211 205 210 214 209 202 211 219 219 228 225 198 189 192 194 198 199 203 209 205 206 212 210 212 220 208 205 208 207 213 214 205 208 220 226 232 236 232 230 232 232 228 227 228 229 226 224 223 222 221 223 226 231 238 244 247 251 254 250 237 232 236 240 242 240 237 235 234 232 231 233 235 236 237 238 239 242
245 258 262 272 283 268 259 265 237 209 209 214 213 206 197 199 205 210 216 204 194 204 210 210 211 209 205 204 199 195 195 188 185 189 185 186 196 198 201 207 210 213 217 222 231 239 240 234 228 226 228 230 231 231 229 228 229 227 226 227 229 232 237 242 245 248 252 251 238 230 231 237 239 238 237 236 235 233 232 233 235 236 237 238 240 242
224 239 246 248 260 263 258 260 237 205 199 195 190 192 192 191 189 194 200 174 172 188 193 194 200 195 191 192 181 163 161 162 175 202 197 198 208 206 203 210 217 221 222 224 231 242 244 238 230 225 226 230 232 233 232 232 233 233 233 234 234 234 236 238 241 244 247 249 241 232 231 236 239 239 237 235 235 234 233 234 235 236 237 239 240 242
205 215 226 234 239 249 259 254 231 205 202 161 156 158 174 188 188 190 184 155 157 169 165 169 190 191 185 189 184 169 170 185 213 227 211 206 213 216 219 224 222 219 221 225 233 244 245 238 231 226 225 228 230 232 233 234 235 236 237 236 233 233 234 234 236 240 244 247 245 236 233 236 238 239 238 237 236 235 234 235 236 237 238 240 241 243
190 198 211 224 229 236 241 232 222 217 211 195 182 165 160 171 176 174 154 136 133 151 151 163 192 198 190 189 190 191 192 198 208 218 217 217 226 232 235 232 224 218 220 226 234 242 244 239 233 228 225 226 228 230 232 235 236 237 238 237 234 234 236 235 236 238 242 245 246 241 237 237 237 238 239 238 237 237 236 236 237 238 239 240 242 243
188 191 203 212 220 231 227 212 219 239 54 79 187 188 168 138 132 150 139 119 115 180 167 158 185 198 200 202 202 205 209 212 218 225 229 233 239 242 242 238 231 225 225 232 238 241 241 239 235 230 228 227 228 231 233 235 238 239 240 239 236 236 239 240 239 239 241 243 244 242 240 239 237 236 236 236 237 238 238 238 239 239 240 242 243 245
190 189 202 206 208 222 222 209 215 235 37 52 167 192 175 121 119 158 148 117 119 186 170 155 185 196 205 212 211 211 217 222 228 232 234 236 238 237 238 239 237 234 234 240 244 243 240 239 236 233 230 228 228 230 232 235 237 237 237 237 235 236 240 242 241 240 240 242 243 242 241 241 239 235 234 234 235 237 238 239 240 241 242 243 245 246
200 199 211 204 201 216 225 219 220 226 226 55 141 183 181 150 78 159 171 154 156 173 164 167 188 184 199 208 207 209 215 221 226 230 230 231 230 229 232 236 238 239 241 243 243 240 239 240 237 235 234 229 226 226 228 232 236 236 234 234 233 235 239 242 242 241 241 241 242 242 241 241 240 238 235 234 234 236 238 239 240 241 242 243 245 246
230 233 228 214 209 217 222 225 227 227 231 231 197 193 191 175 42 315 202 180 168 175 175 179 181 166 179 204 202 203 208 215 223 228 229 230 230 231 233 235 237 240 242 243 240 238 240 242 239 238 237 231 225 224 227 231 237 238 235 231 229 230 234 238 240 240 240 239 240 241 242 241 240 239 238 237 236 237 238 239 240 240 241 243 244 246
252 250 242 241 242 229 223 225 224 226 255 268 232 209 204 203 238 252 213 191 184 194 195 196 203 205 228 252 228 211 207 215 222 222 223 228 232 234 236 238 241 243 243 243 240 239 242 243 240 239 238 231 224 223 226 232 237 238 235 228 224 225 229 234 237 238 239 239 238 238 240 241 241 241 240 239 238 238 239 239 240 242 242 243 245 247
266 256 245 246 254 250 237 228 218 216 233 244 233 222 217 220 232 236 223 207 205 215 219 224 239 251 259 271 268 248 234 234 233 230 234 238 238 238 238 240 246 248 246 244 243 244 247 245 241 239 238 233 227 222 223 228 231 233 233 229 227 227 229 233 237 240 241 241 240 238 238 241 243 244 243 242 241 241 241 241 241 243 245 247 249 251
265 257 248 247 255 258 247 234 227 226 231 233 232 229 228 232 237 238 235 228 222 224 231 240 250 258 261 269 278 276 266 257 250 252 261 262 258 254 248 247 251 251 248 246 245 247 251 249 244 240 237 235 233 229 227 225 224 225 229 231 233 236 236 238 241 244 245 245 244 241 239 239 240 242 243 244 244 245 245 245 245 247 249 250 253 255
259 255 253 251 253 256 251 242 238 242 245 241 233 230 233 238 239 238 237 238 236 233 235 239 244 252 260 267 276 280 277 269 260 259 265 271 271 268 264 261 260 258 255 252 251 253 254 252 247 243 239 237 238 236 233 229 225 224 227 230 233 236 239 241 243 245 247 248 246 244 242 240 239 239 241 242 243 244 244 244 245 246 248 251 253 254
257 255 254 252 250 248 248 246 245 251 254 240 221 227 236 236 235 233 233 235 238 238 238 239 241 244 252 261 267 274 275 268 256 250 254 264 270 271 271 272 272 272 270 266 263 263 262 258 252 246 241 240 239 238 235 232 230 227 228 231 234 236 238 240 242 244 245 244 242 240 239 237 236 237 240 241 241 241 241 242 243 246 249 253 254 252
Height
3114 3115 3112 3109 3109 3112 3115 3117 3119 3123 3125 3124 3124 3125 3125 3125 3125 3125 3125 3127 3130 3132 3133 3135 3137 3138 3138 3139 3141 3143 3146 3147 3148 3148 3147 3150 3153 3153 3155 3157 3157 3159 3161 3162 3163 3164 3166 3167 3168 3170 3171 3172 3173 3174 3176 3177 3179 3180 3181 3183 3184 3186 3187 3188 3189 3191 3193 3195 3197 3199 3201 3202 3204 3206 3207 3208 3209 3210 3211 3212 3213 3214 3216 3217 3218 3219
3112 3108 3103 3104 3109 3113 3116 3117 3120 3122 3123 3123 3122 3122 3121 3122 3123 3123 3123 3124 3127 3129 3130 3132 3134 3135 3136 3137 3139 3140 3142 3144 3147 3148 3145 3146 3151 3152 3153 3155 3156 3157 3159 3160 3161 3162 3164 3166 3167 3168 3169 3171 3172 3173 3174 3176 3178 3179 3180 3182 3183 3184 3186 3187 3189 3190 3193 3195 3197 3199 3200 3202 3204 3205 3206 3207 3208 3209 3210 3211 3212 3213 3215 3216 3217 3218
3106 3099 3098 3105 3110 3113 3114 3116 3118 3119 3121 3121 3121 3120 3119 3118 3120 3122 3122 3122 3125 3126 3127 3129 3131 3132 3134 3135 3136 3136 3138 3139 3142 3145 3144 3143 3146 3149 3151 3153 3154 3155 3157 3158 3159 3161 3162 3164 3165 3166 3168 3169 3171 3172 3173 3175 3177 3178 3179 3180 3181 3183 3185 3186 3188 3190 3192 3194 3196 3198 3200 3201 3203 3204 3205 3206 3207 3208 3209 3210 3211 3212 3214 3215 3217 3218
3097 3093 3098 3106 3108 3110 3112 3113 3115 3117 3118 3118 3118 3118 3117 3116 3117 3118 3118 3120 3122 3124 3125 3127 3128 3129 3130 3132 3133 3134 3135 3136 3137 3141 3144 3141 3142 3146 3148 3151 3152 3152 3154 3156 3157 3158 3160 3162 3163 3164 3166 3167 3169 3170 3172 3173 3175 3176 3177 3179 3180 3181 3183 3185 3187 3189 3191 3193 3195 3197 3199 3200 3202 3203 3204 3205 3206 3207 3208 3209 3210 3211 3213 3214 3215 3217
3092 3093 3099 3104 3105 3107 3109 3110 3112 3113 3114 3115 3115 3115 3115 3116 3116 3115 3115 3117 3119 3121 3123 3125 3126 3126 3127 3128 3129 3131 3133 3133 3134 3137 3140 3139 3138 3142 3146 3149 3151 3150 3152 3153 3154 3155 3158 3160 3161 3162 3163 3165 3167 3168 3170 3172 3173 3175 3176 3178 3179 3180 3182 3184 3186 3188 3190 3192 3193 3195 3197 3198 3199 3201 3202 3203 3204 3206 3207 3208 3209 3210 3212 3213 3214 3215
3092 3096 3099 3100 3102 3104 3105 3106 3108 3109 3110 3111 3111 3112 3114 3115 3115 3115 3115 3115 3116 3116 3119 3122 3122 3122 3125 3127 3127 3129 3131 3132 3134 3134 3136 3137 3136 3138 3142 3146 3148 3149 3149 3150 3152 3154 3156 3158 3159 3160 3161 3163 3165 3166 3168 3171 3172 3174 3175 3177 3178 3179 3181 3183 3185 3187 3188 3190 3192 3194 3195 3197 3198 3199 3201 3202 3204 3205 3206 3207 3208 3209 3210 3212 3213 3214
3091 3095 3097 3097 3099 3101 3102 3103 3104 3107 3108 3107 3108 3111 3113 3114 3115 3115 3115 3114 3113 3112 3115 3118 3118 3119 3122 3124 3125 3127 3128 3129 3132 3132 3133 3134 3132 3134 3138 3142 3145 3147 3147 3149 3150 3152 3154 3155 3156 3157 3159 3160 3163 3165 3167 3169 3171 3172 3174 3175 3177 3178 3180 3182 3184 3186 3187 3189 3191 3192 3194 3196 3198 3199 3200 3202 3203 3204 3205 3206 3207 3208 3209 3211 3212 3213
3087 3091 3093 3094 3096 3097 3097 3098 3100 3104 3104 3103 3106 3109 3111 3113 3113 3114 3114 3113 3111 3111 3111 3112 3114 3116 3117 3119 3122 3124 3125 3126 3128 3129 3130 3129 3128 3130 3134 3138 3143 3145 3146 3147 3148 3149 3151 3153 3154 3156 3157 3158 3161 3164 3166 3167 3169 3170 3172 3174 3176 3177 3178 3180 3182 3184 3186 3187 3189 3191 3193 3195 3196 3198 3200 3201 3202 3203 3204 3205 3206 3207 3208 3209 3211 3212
3084 3086 3088 3091 3092 3092 3092 3094 3098 3101 3101 3102 3106 3108 3109 3111 3112 3113 3113 3112 3111 3110 3107 3107 3111 3111 3112 3115 3119 3121 3122 3123 3125 3127 3128 3127 3125 3128 3131 3133 3138 3142 3144 3146 3147 3148 3149 3151 3154 3155 3155 3157 3160 3162 3164 3166 3167 3169 3170 3172 3174 3175 3177 3178 3181 3183 3184 3186 3188 3190 3192 3194 3195 3197 3198 3200 3201 3202 3203 3204 3205 3206 3207 3208 3209 3211
3082 3082 3086 3088 3088 3088 3090 3093 3096 3098 3099 3102 3105 3106 3107 3108 3110 3112 3112 3112 3113 3109 3104 3105 3106 3105 3105 3109 3113 3115 3116 3118 3120 3123 3127 3126 3123 3126 3129 3131 3134 3137 3141 3143 3144 3146 3148 3150 3152 3153 3154 3157 3159 3161 3163 3165 3166 3167 3168 3170 3172 3173 3175 3177 3179 3181 3183 3185 3187 3189 3191 3193 3194 3196 3197 3198 3200 3201 3202 3203 3204 3205 3206 3207 3208 3209
3080 3081 3084 3084 3084 3086 3089 3092 3094 3096 3098 3101 3104 3104 3106 3106 3108 3110 3110 3113 3112 3104 3102 3105 3105 3103 3104 3106 3109 3110 3111 3114 3116 3118 3122 3123 3122 3124 3126 3129 3133 3136 3138 3140 3141 3143 3145 3147 3149 3150 3151 3154 3157 3159 3161 3163 3164 3165 3167 3168 3169 3171 3173 3175 3177 3179 3181 3183 3185 3187 3189 3191 3193 3194 3196 3197 3199 3200 3201 3202 3203 3204 3205 3206 3207 3208
3078 3078 3078 3079 3082 3085 3087 3089 3091 3093 3096 3099 3100 3102 3104 3104 3105 3106 3106 3110 3105 3097 3100 3105 3106 3106 3103 3104 3107 3107 3108 3112 3114 3115 3117 3119 3121 3124 3125 3126 3130 3133 3136 3138 3139 3141 3143 3144 3146 3147 3149 3150 3153 3155 3158 3160 3162 3163 3165 3166 3167 3169 3171 3173 3174 3177 3179 3181 3183 3185 3188 3189 3191 3193 3194 3196 3198 3199 3200 3201 3202 3203 3204 3205 3206 3207
3073 3072 3074 3076 3079 3081 3083 3085 3087 3090 3092 3095 3097 3099 3100 3099 3100 3102 3102 3101 3096 3093 3099 3104 3105 3104 3099 3101 3106 3105 3107 3110 3111 3113 3116 3116 3118 3122 3124 3125 3126 3129 3132 3135 3136 3138 3140 3142 3143 3145 3147 3149 3150 3152 3154 3157 3160 3161 3163 3164 3165 3167 3168 3170 3172 3175 3177 3179 3181 3184 3186 3188 3189 3191 3192 3194 3196 3198 3199 3200 3201 3202 3203 3204 3205 3205
3067 3069 3071 3072 3072 3075 3078 3079 3081 3083 3086 3089 3091 3093 3094 3092 3095 3100 3099 3097 3094 3094 3099 3102 3102 3099 3095 3098 3102 3102 3105 3107 3108 3111 3112 3113 3115 3117 3121 3123 3124 3126 3129 3132 3133 3135 3137 3139 3141 3143 3145 3146 3147 3149 3152 3155 3157 3159 3160 3162 3163 3165 3166 3168 3170 3173 3175 3177 3179 3182 3184 3186 3187 3189 3191 3193 3194 3196 3198 3199 3200 3201 3202 3203 3204 3205
3061 3061 3061 3063 3065 3069 3072 3074 3077 3079 3083 3085 3087 3091 3090 3087 3090 3094 3094 3093 3093 3093 3096 3099 3097 3093 3092 3094 3097 3100 3102 3104 3106 3107 3109 3110 3110 3111 3115 3119 3122 3123 3126 3130 3131 3132 3134 3137 3140 3143 3143 3143 3144 3147 3150 3153 3155 3157 3158 3159 3161 3163 3164 3166 3168 3170 3173 3175 3178 3180 3182 3184 3186 3187 3189 3191 3193 3194 3196 3197 3199 3200 3201 3202 3203 3204
3056 3053 3054 3060 3064 3065 3068 3071 3076 3078 3080 3082 3086 3087 3084 3083 3087 3089 3089 3089 3091 3091 3091 3091 3090 3089 3090 3091 3094 3097 3097 3099 3103 3104 3106 3107 3106 3107 3111 3116 3119 3120 3122 3126 3129 3131 3132 3135 3138 3140 3141 3141 3143 3145 3148 3151 3153 3154 3156 3157 3159 3161 3163 3164 3166 3168 3171 3173 3176 3178 3180 3182 3184 3185 3187 3189 3191 3192 3194 3196 3197 3199 3200 3201 3202 3203
3051 3050 3054 3059 3061 3062 3065 3068 3072 3073 3074 3078 3080 3078 3079 3084 3087 3087 3086 3085 3086 3086 3084 3084 3085 3087 3089 3089 3090 3092 3093 3095 3098 3100 3103 3105 3104 3104 3106 3111 3116 3118 3118 3121 3126 3129 3131 3133 3134 3136 3138 3139 3141 3144 3146 3148 3150 3152 3154 3156 3157 3158 3160 3162 3164 3166 3169 3171 3173 3175 3178 3180 3182 3183 3185 3187 3189 3191 3192 3194 3196 3197 3198 3200 3201 3202
3048 3048 3050 3054 3056 3059 3063 3067 3070 3071 3072 3073 3073 3075 3080 3085 3086 3086 3084 3082 3082 3082 3079 3079 3079 3081 3083 3084 3085 3088 3090 3091 3093 3096 3099 3101 3102 3101 3102 3107 3112 3116 3117 3117 3122 3126 3128 3129 3131 3132 3134 3136 3139 3142 3144 3146 3148 3151 3152 3154 3156 3157 3158 3160 3162 3164 3167 3169 3171 3173 3175 3177 3179 3181 3183 3185 3187 3189 3190 3192 3194 3195 3197 3198 3199 3201
3047 3045 3045 3048 3052 3056 3061 3065 3066 3067 3069 3069 3070 3074 3078 3078 3079 3082 3082 3079 3079 3079 3077 3075 3075 3075 3076 3079 3081 3083 3085 3088 3090 3092 3095 3098 3100 3099 3100 3105 3110 3114 3116 3116 3119 3123 3125 3126 3128 3130 3133 3135 3138 3141 3144 3145 3147 3149 3150 3152 3154 3155 3157 3159 3160 3162 3164 3166 3168 3171 3173 3175 3177 3179 3181 3183 3185 3186 3188 3190 3192 3194 3195 3197 3198 3199
3045 3043 3040 3042 3048 3053 3057 3058 3057 3060 3064 3067 3070 3071 3073 3074 3075 3077 3078 3077 3077 3076 3075 3075 3074 3073 3073 3074 3078 3080 3082 3085 3087 3089 3092 3095 3098 3098 3098 3101 3106 3111 3114 3116 3118 3121 3123 3124 3126 3129 3132 3134 3137 3139 3142 3144 3145 3147 3148 3150 3152 3154 3155 3157 3158 3159 3161 3164 3166 3168 3171 3173 3175 3177 3179 3181 3182 3184 3186 3188 3190 3192 3193 3195 3196 3197
3043 3042 3038 3038 3043 3047 3046 3046 3048 3053 3058 3062 3064 3065 3067 3071 3073 3074 3075 3075 3075 3074 3073 3074 3073 3070 3069 3071 3074 3077 3079 3082 3084 3086 3089 3092 3095 3098 3098 3099 3103 3108 3111 3114 3117 3118 3120 3123 3125 3128 3131 3134 3136 3138 3140 3141 3143 3145 3146 3148 3150 3152 3153 3154 3155 3157 3159 3161 3164 3166 3168 3170 3172 3174 3176 3178 3180 3182 3184 3186 3188 3190 3191 3193 3194 3196
3038 3038 3037 3036 3037 3037 3037 3041 3047 3051 3055 3057 3059 3060 3062 3066 3069 3070 3070 3071 3074 3074 3072 3072 3070 3066 3066 3068 3071 3075 3077 3080 3082 3084 3087 3089 3093 3096 3097 3098 3100 3105 3109 3112 3115 3117 3119 3122 3124 3126 3129 3132 3134 3135 3137 3139 3140 3142 3144 3146 3148 3149 3150 3152 3153 3155 3157 3159 3161 3163 3166 3168 3170 3172 3174 3176 3177 3179 3181 3184 3186 3188 3189 3191 3192 3194
3036 3036 3036 3035 3033 3032 3036 3043 3047 3050 3054 3056 3058 3059 3060 3063 3064 3065 3066 3068 3072 3073 3072 3072 3070 3067 3067 3069 3071 3074 3077 3078 3081 3083 3085 3088 3091 3093 3096 3097 3098 3101 3106 3110 3113 3115 3118 3121 3123 3124 3126 3129 3132 3133 3135 3136 3137 3139 3141 3143 3145 3147 3148 3150 3152 3154 3156 3157 3159 3161 3163 3165 3167 3169 3171 3173 3174 3177 3179 3181 3183 3185 3187 3189 3190 3192
3036 3035 3035 3034 3031 3031 3036 3043 3046 3049 3052 3052 3053 3056 3057 3059 3061 3063 3065 3067 3068 3069 3071 3072 3070 3069 3069 3070 3072 3074 3077 3078 3080 3083 3085 3087 3089 3091 3094 3096 3096 3099 3104 3109 3112 3113 3115 3118 3120 3121 3123 3126 3129 3131 3132 3133 3135 3137 3139 3141 3143 3145 3147 3149 3150 3152 3153 3155 3157 3159 3161 3163 3165 3167 3168 3170 3172 3174 3177 3179 3181 3183 3185 3186 3188 3189
3031 3031 3033 3032 3030 3028 3030 3036 3040 3043 3045 3045 3047 3051 3054 3056 3059 3062 3064 3065 3065 3066 3068 3070 3069 3069 3070 3071 3072 3075 3077 3079 3080 3082 3084 3086 3088 3091 3093 3094 3094 3096 3101 3107 3110 3111 3112 3115 3117 3119 3121 3124 3126 3128 3129 3131 3132 3134 3136 3138 3140 3142 3145 3147 3149 3150 3151 3153 3155 3157 3158 3160 3162 3164 3166 3168 3170 3172 3175 3177 3178 3180 3182 3184 3185 3187
3027 3029 3030 3029 3026 3022 3021 3026 3031 3035 3039 3042 3043 3046 3050 3053 3055 3058 3061 3062 3062 3064 3066 3067 3067 3067 3069 3071 3073 3075 3077 3079 3080 3083 3085 3086 3088 3089 3090 3092 3092 3094 3099 3104 3107 3109 3110 3113 3115 3117 3119 3122 3124 3126 3127 3128 3130 3132 3134 3136 3138 3140 3142 3144 3146 3148 3149 3151 3153 3154 3156 3158 3160 3162 3164 3166 3168 3170 3173 3174 3176 3178 3180 3182 3183 3185
3026 3025 3025 3025 3025 3023 3022 3026 3030 3034 3037 3038 3039 3041 3046 3050 3052 3055 3057 3058 3060 3062 3064 3065 3066 3067 3069 3070 3072 3074 3076 3078 3080 3082 3084 3085 3086 3085 3086 3089 3092 3094 3098 3102 3106 3108 3109 3111 3113 3115 3118 3120 3122 3124 3125 3126 3128 3129 3131 3133 3135 3137 3139 3142 3144 3145 3147 3149 3151 3152 3154 3156 3158 3160 3162 3164 3166 3168 3170 3172 3174 3175 3177 3179 3181 3182
3025 3023 3023 3023 3024 3025 3026 3027 3029 3031 3032 3035 3037 3038 3042 3046 3049 3051 3053 3055 3059 3061 3062 3063 3065 3066 3067 3070 3072 3073 3076 3078 3079 3082 3084 3084 3084 3084 3085 3088 3092 3094 3098 3101 3104 3106 3107 3109 3112 3113 3116 3119 3120 3122 3123 3124 3126 3127 3129 3130 3132 3134 3137 3139 3141 3143 3144 3146 3149 3150 3152 3154 3157 3159 3161 3162 3164 3166 3168 3170 3171 3173 3175 3176 3178 3180
3024 3022 3022 3022 3023 3025 3027 3028 3028 3029 3029 3032 3035 3036 3039 3043 3046 3048 3051 3054 3058 3059 3060 3063 3065 3066 3067 3069 3071 3073 3075 3077 3079 3082 3083 3081 3082 3086 3087 3089 3092 3095 3097 3100 3102 3104 3106 3107 3110 3112 3114 3116 3118 3119 3121 3122 3124 3125 3127 3128 3130 3132 3134 3136 3138 3140 3142 3144 3146 3148 3150 3153 3155 3157 3159 3160 3162 3164 3165 3167 3169 3171 3173 3174 3175 3177
3023 3022 3022 3022 3023 3024 3026 3028 3029 3029 3028 3029 3031 3034 3036 3040 3043 3047 3051 3054 3056 3059 3061 3063 3065 3067 3068 3068 3070 3073 3075 3077 3079 3081 3082 3082 3084 3087 3089 3091 3094 3095 3097 3099 3101 3103 3105 3106 3109 3111 3112 3114 3115 3117 3119 3120 3122 3123 3125 3126 3128 3130 3132 3134 3135 3138 3139 3141 3143 3146 3148 3151 3153 3155 3157 3158 3160 3161 3163 3165 3167 3169 3170 3171 3173 3174
3024 3024 3024 3023 3023 3023 3024 3026 3028 3029 3029 3028 3028 3030 3034 3037 3041 3045 3049 3052 3054 3058 3060 3062 3064 3067 3068 3069 3070 3072 3075 3077 3079 3081 3083 3085 3086 3088 3090 3094 3095 3095 3096 3099 3101 3102 3104 3106 3108 3109 3110 3112 3113 3115 3117 3118 3120 3122 3123 3125 3126 3128 3130 3131 3133 3135 3137 3138 3141 3144 3146 3148 3150 3152 3154 3156 3158 3159 3161 3163 3165 3166 3168 3169 3170 3172
3026 3025 3024 3024 3022 3020 3023 3025 3026 3028 3029 3028 3028 3029 3031 3035 3038 3042 3047 3050 3052 3056 3059 3061 3063 3066 3069 3070 3071 3072 3074 3076 3078 3081 3084 3085 3086 3088 3091 3094 3095 3096 3097 3099 3100 3102 3103 3105 3106 3107 3108 3110 3111 3113 3115 3116 3118 3120 3121 3123 3125 3126 3128 3129 3130 3132 3134 3136 3138 3141 3143 3145 3147 3150 3151 3153 3155 3157 3159 3161 3162 3164 3165 3166 3168 3169
3027 3026 3025 3026 3022 3020 3022 3024 3024 3027 3029 3028 3028 3029 3031 3034 3037 3040 3044 3048 3051 3054 3057 3059 3062 3065 3068 3070 3071 3073 3075 3076 3078 3081 3083 3084 3086 3088 3090 3091 3094 3096 3098 3099 3100 3101 3102 3104 3106 3107 3107 3108 3110 3111 3113 3114 3116 3118 3119 3121 3123 3124 3126 3127 3129 3129 3131 3133 3135 3137 3139 3142 3144 3147 3149 3151 3153 3154 3156 3158 3159 3161 3162 3164 3166 3167
3028 3027 3026 3026 3024 3021 3022 3025 3026 3027 3028 3027 3029 3031 3032 3034 3036 3038 3042 3046 3050 3053 3056 3059 3062 3064 3066 3069 3071 3073 3074 3076 3079 3081 3082 3083 3085 3087 3088 3090 3092 3094 3097 3099 3100 3101 3102 3103 3104 3104 3105 3107 3108 3109 3111 3112 3114 3116 3117 3119 3121 3122 3124 3125 3127 3127 3128 3130 3131 3133 3136 3138 3141 3143 3146 3148 3150 3152 3153 3155 3156 3158 3160 3161 3163 3164
3029 3028 3026 3026 3025 3023 3024 3027 3027 3025 3026 3029 3031 3032 3033 3034 3035 3036 3039 3042 3046 3050 3053 3057 3060 3062 3064 3067 3069 3071 3073 3076 3078 3080 3082 3083 3085 3087 3089 3091 3092 3093 3094 3096 3097 3098 3099 3100 3100 3101 3102 3105 3106 3107 3109 3110 3112 3113 3115 3117 3119 3120 3122 3123 3124 3125 3126 3127 3129 3130 3132 3135 3137 3140 3143 3145 3147 3148 3150 3152 3153 3155 3157 3158 3160 3161
3030 3030 3028 3026 3026 3026 3026 3026 3025 3024 3027 3031 3032 3032 3034 3035 3035 3037 3038 3040 3043 3047 3051 3054 3058 3061 3063 3066 3068 3070 3072 3075 3077 3078 3080 3082 3085 3087 3090 3092 3093 3093 3094 3094 3094 3095 3096 3096 3098 3099 3101 3103 3104 3105 3107 3108 3110 3111 3113 3115 3117 3118 3120 3121 3122 3123 3124 3125 3126 3128 3130 3131 3133 3136 3140 3142 3143 3145 3147 3148 3150 3152 3154 3156 3157 3158
3032 3032 3032 3030 3028 3028 3028 3027 3026 3026 3028 3030 3031 3032 3034 3036 3037 3039 3040 3040 3043 3046 3051 3055 3058 3061 3064 3066 3068 3069 3071 3073 3075 3077 3080 3082 3085 3087 3087 3088 3090 3092 3092 3091 3090 3091 3093 3095 3097 3098 3100 3101 3102 3104 3105 3106 3107 3109 3111 3112 3114 3116 3118 3118 3120 3121 3122 3123 3124 3125 3127 3129 3131 3133 3136 3138 3140 3142 3144 3146 3147 3149 3151 3152 3154 3155
3033 3033 3033 3033 3031 3030 3031 3029 3025 3024 3026 3028 3030 3032 3034 3036 3039 3041 3042 3042 3045 3048 3052 3056 3059 3061 3063 3065 3067 3069 3070 3072 3075 3078 3080 3081 3082 3082 3082 3084 3086 3087 3086 3086 3087 3089 3092 3095 3096 3097 3099 3100 3101 3102 3103 3105 3106 3107 3109 3111 3112 3114 3115 3116 3117 3119 3119 3120 3121 3123 3124 3126 3128 3130 3132 3134 3136 3139 3141 3143 3144 3146 3147 3149 3151 3152
3034 3034 3034 3034 3032 3032 3033 3030 3025 3023 3026 3030 3031 3032 3033 3036 3039 3041 3042 3044 3047 3050 3052 3056 3059 3059 3060 3061 3063 3065 3068 3072 3075 3076 3076 3077 3077 3077 3079 3081 3083 3082 3082 3084 3086 3088 3090 3092 3093 3095 3096 3098 3099 3100 3102 3103 3104 3105 3107 3109 3110 3111 3112 3114 3115 3116 3117 3118 3118 3120 3121 3123 3125 3127 3129 3131 3133 3135 3138 3139 3141 3142 3144 3145 3147 3149
3033 3034 3035 3034 3033 3032 3033 3030 3026 3025 3027 3028 3029 3030 3034 3037 3039 3042 3042 3042 3044 3047 3050 3053 3055 3054 3054 3058 3060 3063 3066 3070 3070 3070 3071 3072 3073 3075 3077 3078 3079 3080 3081 3083 3085 3086 3087 3088 3090 3092 3093 3095 3096 3098 3099 3101 3102 3103 3105 3106 3107 3108 3110 3111 3112 3113 3114 3115 3115 3116 3118 3120 3122 3124 3126 3128 3130 3132 3134 3135 3137 3138 3140 3142 3143 3145
3031 3033 3035 3034 3032 3032 3032 3030 3026 3026 3028 3028 3027 3029 3032 3035 3037 3039 3040 3040 3042 3045 3047 3048 3048 3048 3050 3055 3058 3061 3063 3063 3062 3063 3067 3069 3070 3072 3074 3076 3077 3078 3079 3081 3083 3084 3084 3085 3087 3089 3090 3091 3093 3094 3096 3097 3099 3101 3102 3103 3104 3105 3107 3108 3109 3110 3111 3112 3113 3113 3115 3116 3119 3121 3123 3125 3127 3129 3130 3132 3133 3135 3136 3138 3139 3141
3028 3031 3034 3034 3032 3032 3032 3030 3028 3028 3028 3028 3027 3028 3029 3032 3034 3035 3036 3039 3042 3043 3043 3044 3044 3045 3048 3051 3054 3057 3058 3059 3059 3061 3064 3067 3068 3070 3072 3073 3075 3076 3077 3078 3079 3080 3081 3082 3084 3085 3086 3087 3089 3091 3092 3094 3096 3097 3099 3100 3101 3103 3103 3104 3105 3106 3107 3108 3109 3110 3111 3113 3115 3117 3119 3122 3124 3126 3127 3128 3130 3131 3133 3134 3135 3137
3026 3028 3031 3032 3032 3031 3030 3030 3029 3029 3028 3027 3027 3028 3029 3030 3032 3033 3034 3037 3040 3041 3042 3043 3043 3044 3045 3048 3051 3054 3057 3058 3059 3060 3063 3065 3067 3068 3070 3071 3072 3073 3074 3075 3075 3077 3079 3079 3080 3082 3083 3084 3086 3088 3090 3091 3092 3094 3095 3096 3098 3099 3100 3101 3102 3103 3104 3105 3106 3107 3108 3109 3111 3113 3115 3118 3120 3122 3123 3124 3126 3127 3128 3130 3131 3133
3025 3027 3028 3030 3031 3030 3029 3028 3029 3028 3028 3028 3027 3028 3029 3030 3032 3032 3032 3034 3037 3039 3041 3042 3043 3043 3045 3047 3050 3053 3056 3057 3057 3059 3061 3063 3064 3065 3066 3067 3068 3070 3071 3072 3072 3074 3075 3076 3077 3079 3080 3081 3083 3085 3086 3088 3089 3090 3091 3092 3094 3096 3097 3098 3099 3100 3101 3102 3102 3103 3104 3106 3107 3109 3111 3113 3115 3117 3119 3120 3122 3123 3125 3126 3127 3128
3023 3023 3024 3025 3027 3027 3026 3026 3026 3027 3029 3028 3027 3027 3028 3030 3032 3032 3031 3033 3035 3037 3038 3040 3041 3043 3044 3046 3049 3052 3053 3054 3055 3057 3059 3060 3061 3062 3062 3063 3064 3067 3068 3069 3069 3071 3072 3073 3075 3076 3077 3078 3080 3081 3083 3084 3085 3086 3087 3088 3090 3092 3094 3095 3096 3097 3098 3098 3099 3100 3101 3102 3104 3105 3107 3109 3111 3113 3114 3116 3117 3119 3121 3122 3123 3124
3021 3021 3021 3022 3023 3023 3023 3024 3025 3026 3027 3026 3025 3027 3029 3030 3031 3031 3030 3031 3033 3035 3037 3038 3039 3041 3043 3045 3047 3049 3051 3053 3053 3054 3056 3058 3058 3059 3059 3060 3062 3063 3064 3065 3066 3068 3070 3071 3072 3073 3074 3076 3077 3078 3080 3081 3082 3082 3084 3086 3087 3089 3090 3092 3093 3094 3094 3095 3096 3097 3098 3099 3100 3102 3104 3105 3107 3108 3110 3111 3113 3115 3116 3118 3119 3120
3020 3020 3020 3021 3022 3023 3023 3023 3024 3024 3023 3023 3024 3028 3030 3030 3030 3029 3028 3031 3033 3034 3036 3038 3039 3041 3042 3044 3045 3047 3049 3051 3051 3052 3055 3056 3056 3057 3058 3058 3059 3060 3061 3062 3064 3066 3067 3068 3069 3070 3072 3073 3074 3076 3077 3078 3079 3080 3082 3083 3084 3085 3087 3088 3090 3090 3091 3092 3092 3093 3095 3096 3097 3099 3100 3102 3103 3104 3106 3108 3110 3111 3113 3114 3115 3117
3020 3019 3019 3020 3021 3021 3021 3021 3021 3021 3020 3020 3023 3026 3029 3029 3028 3027 3028 3030 3032 3033 3034 3036 3038 3039 3041 3042 3044 3045 3047 3048 3048 3050 3052 3053 3054 3055 3056 3057 3057 3058 3059 3060 3062 3063 3064 3065 3066 3067 3069 3071 3072 3073 3074 3076 3077 3078 3079 3080 3081 3082 3084 3085 3086 3087 3088 3089 3090 3091 3092 3093 3095 3096 3097 3098 3099 3100 3102 3105 3107 3108 3109 3111 3112 3113
3019 3018 3018 3019 3019 3020 3020 3020 3021 3020 3020 3021 3023 3026 3028 3027 3025 3025 3027 3029 3031 3032 3033 3035 3036 3037 3038 3040 3042 3043 3044 3044 3046 3048 3049 3051 3052 3053 3054 3055 3056 3056 3057 3058 3060 3061 3061 3062 3063 3065 3066 3068 3069 3070 3072 3073 3074 3075 3076 3077 3078 3080 3081 3082 3083 3084 3085 3086 3087 3089 3089 3090 3091 3092 3093 3094 3095 3097 3099 3101 3103 3104 3106 3108 3109 3110
3018 3018 3018 3018 3017 3018 3019 3021 3021 3022 3022 3022 3024 3025 3024 3020 3019 3022 3025 3026 3028 3030 3031 3032 3034 3035 3037 3039 3041 3042 3042 3042 3043 3045 3047 3048 3050 3051 3052 3052 3053 3054 3055 3056 3057 3058 3059 3060 3061 3062 3063 3065 3066 3067 3069 3070 3071 3072 3073 3074 3076 3077 3078 3079 3080 3081 3082 3084 3085 3086 3087 3088 3088 3089 3089 3091 3093 3094 3096 3098 3099 3101 3103 3104 3105 3106
3017 3017 3017 3017 3016 3016 3018 3019 3020 3019 3019 3020 3022 3021 3017 3015 3016 3019 3021 3023 3024 3027 3028 3030 3031 3032 3035 3037 3039 3040 3040 3040 3042 3043 3045 3046 3048 3049 3049 3050 3050 3051 3052 3053 3054 3055 3056 3057 3058 3059 3060 3062 3063 3064 3066 3067 3068 3070 3071 3072 3073 3075 3076 3077 3078 3079 3080 3082 3083 3084 3085 3086 3086 3086 3088 3089 3091 3093 3094 3096 3097 3098 3100 3101 3102 3103